timestamp,surface_pressure_avg,surface_temp_avg,battery_voltage,lat,long
2021-01-15 00:09:01+00:00,326.1846,3.5,12.65,47.84626,-54.09684
2021-01-15 00:19:01+00:00,328.3813,3.58,12.65,47.84626,-54.09684
2021-01-15 00:29:01+00:00,332.2397,3.6,12.65,47.84626,-54.09684
2021-01-15 00:39:01+00:00,331.0131,3.6,12.65,47.84626,-54.09684
2021-01-15 00:49:01+00:00,330.3029,3.6,12.65,47.84626,-54.09684
2021-01-15 00:59:01+00:00,330.7531,3.6,12.65,47.84626,-54.09684
2021-01-15 01:09:01+00:00,331.6063,3.6,12.65,47.84626,-54.09684
2021-01-15 01:19:01+00:00,329.1196,3.6,12.57,47.84626,-54.09684
2021-01-15 01:29:01+00:00,325.7147,3.59,12.57,47.84626,-54.09684
2021-01-15 01:39:01+00:00,322.433,3.59,12.57,47.84626,-54.09684
2021-01-15 01:49:01+00:00,320.6163,3.59,12.57,47.84626,-54.09684
2021-01-15 01:59:01+00:00,316.158,3.59,12.57,47.84626,-54.09684
2021-01-15 02:09:01+00:00,312.293,3.59,12.57,47.84626,-54.09684
2021-01-15 02:19:01+00:00,312.3647,3.57,12.57,47.84626,-54.09684
2021-01-15 02:29:01+00:00,312.6829,3.56,12.57,47.84626,-54.09684
2021-01-15 02:39:01+00:00,306.2864,3.56,12.57,47.84626,-54.09684
2021-01-15 02:49:01+00:00,304.2114,3.5,12.57,47.84626,-54.09684
2021-01-15 02:59:01+00:00,304.7029,3.5,12.57,47.84626,-54.09684
2021-01-15 03:09:01+00:00,300.3264,3.4,12.57,47.84626,-54.09684
2021-01-15 03:19:01+00:00,286.7697,3.3,12.57,47.84626,-54.09684
2021-01-15 03:29:01+00:00,277.9397,3.3,12.57,47.84626,-54.09684
2021-01-15 03:39:01+00:00,271.1064,3.37,12.57,47.84626,-54.09684
2021-01-15 03:49:01+00:00,259.548,3.4,12.57,47.84626,-54.09684
2021-01-15 03:59:01+00:00,246.4314,3.4,12.57,47.84626,-54.09684
2021-01-15 04:09:01+00:00,241.6914,3.4,12.57,47.84626,-54.09684
2021-01-15 04:19:01+00:00,236.4464,3.37,12.57,47.84626,-54.09684
2021-01-15 04:29:01+00:00,227.0914,3.3,12.57,47.84626,-54.09684
2021-01-15 04:39:01+00:00,222.6965,3.2,12.57,47.84626,-54.09684
2021-01-15 04:49:01+00:00,215.9898,3.2,12.57,47.84626,-54.09684
2021-01-15 04:59:01+00:00,205.9765,3.1,12.57,47.84626,-54.09684
2021-01-15 05:09:01+00:00,196.6398,3.0,12.57,47.84626,-54.09684
2021-01-15 05:19:01+00:00,191.2081,3.0,12.49,47.84626,-54.09684
2021-01-15 05:29:01+00:00,186.6265,2.99,12.49,47.84626,-54.09684
2021-01-15 05:39:01+00:00,177.8248,2.9,12.49,47.84626,-54.09684
2021-01-15 05:49:01+00:00,169.2665,2.9,12.49,47.84626,-54.09684
2021-01-15 05:59:01+00:00,168.4965,2.9,12.49,47.84626,-54.09684
2021-01-15 06:09:01+00:00,168.7898,2.99,12.49,47.84626,-54.09684
2021-01-15 06:19:01+00:00,165.4115,3.0,12.49,47.84626,-54.09684
2021-01-15 06:29:01+00:00,168.0265,3.04,12.49,47.84626,-54.09684
2021-01-15 06:39:01+00:00,175.9681,3.1,12.49,47.84626,-54.09684
2021-01-15 06:49:01+00:00,179.0531,3.19,12.49,47.84626,-54.09684
2021-01-15 06:59:01+00:00,176.9065,3.2,12.49,47.84626,-54.09684
2021-01-15 07:09:01+00:00,176.3065,3.2,12.49,47.84626,-54.09684
2021-01-15 07:19:01+00:00,180.3915,3.18,12.49,47.84626,-54.09684
2021-01-15 07:29:01+00:00,181.1465,3.2,12.49,47.84626,-54.09684
2021-01-15 07:39:01+00:00,177.6464,3.26,12.49,47.84626,-54.09684
2021-01-15 07:49:01+00:00,182.6248,3.3,12.49,47.84626,-54.09684
2021-01-15 07:59:01+00:00,185.8032,3.34,12.49,47.84626,-54.09684
2021-01-15 08:09:01+00:00,186.3998,3.36,12.49,47.84626,-54.09684
2021-01-15 08:19:01+00:00,196.1731,3.4,12.41,47.84626,-54.09684
2021-01-15 08:29:01+00:00,204.4481,3.42,12.41,47.84626,-54.09684
2021-01-15 08:39:01+00:00,208.3382,3.49,12.41,47.84626,-54.09684
2021-01-15 08:49:01+00:00,214.8431,3.5,12.41,47.84626,-54.09684
2021-01-15 08:59:01+00:00,221.8298,3.5,12.41,47.84626,-54.09684
2021-01-15 09:09:01+00:00,219.8831,3.49,12.41,47.84626,-54.09684
2021-01-15 09:19:01+00:00,219.6781,3.4,12.41,47.84626,-54.09684
2021-01-15 09:29:01+00:00,228.4514,3.4,12.41,47.84626,-54.09684
2021-01-15 09:39:01+00:00,239.4364,3.43,12.41,47.84626,-54.09684
2021-01-15 09:49:01+00:00,243.1697,3.48,12.41,47.84626,-54.09684
2021-01-15 09:59:01+00:00,245.9764,3.5,12.41,47.84626,-54.09684
2021-01-15 10:09:01+00:00,255.4548,3.5,12.41,47.84626,-54.09684
2021-01-15 10:19:01+00:00,266.4098,3.5,12.41,47.84626,-54.09684
2021-01-15 10:29:01+00:00,272.3481,3.5,12.41,47.84626,-54.09684
2021-01-15 10:39:01+00:00,278.2947,3.5,12.41,47.84626,-54.09684
2021-01-15 10:49:01+00:00,292.3763,3.5,12.41,47.84626,-54.09684
2021-01-15 10:59:01+00:00,302.7764,3.5,12.41,47.84626,-54.09684
2021-01-15 11:09:01+00:00,307.308,3.52,12.41,47.84626,-54.09684
2021-01-15 11:19:01+00:00,311.8164,3.54,12.41,47.84626,-54.09684
2021-01-15 11:29:01+00:00,320.698,3.56,12.41,47.84626,-54.09684
2021-01-15 11:39:01+00:00,331.7963,3.6,12.41,47.84626,-54.09684
2021-01-15 11:49:01+00:00,336.6429,3.63,12.41,47.84626,-54.09684
2021-01-15 11:59:01+00:00,341.4846,3.66,12.41,47.84626,-54.09684
2021-01-15 12:09:01+00:00,353.713,3.68,12.41,47.84626,-54.09684
2021-01-15 12:19:01+00:00,362.7096,3.7,12.41,47.84626,-54.09684
2021-01-15 12:29:01+00:00,365.4197,3.7,12.41,47.84626,-54.09684
2021-01-15 12:39:01+00:00,364.668,3.7,12.41,47.84626,-54.09684
2021-01-15 12:49:01+00:00,373.8096,3.7,12.41,47.84626,-54.09684
2021-01-15 12:59:01+00:00,382.4096,3.7,12.41,47.84626,-54.09684
2021-01-15 13:09:01+00:00,382.923,3.7,12.41,47.84626,-54.09684
2021-01-15 13:19:01+00:00,379.5345,3.7,12.41,47.84626,-54.09684
2021-01-15 13:29:01+00:00,381.4412,3.7,12.41,47.84626,-54.09684
2021-01-15 13:39:01+00:00,386.7296,3.7,12.41,47.84626,-54.09684
2021-01-15 13:49:01+00:00,383.5495,3.7,12.41,47.84626,-54.09684
2021-01-15 13:59:01+00:00,377.6146,3.7,12.41,47.84626,-54.09684
2021-01-15 14:09:01+00:00,379.5746,3.7,12.41,47.84626,-54.09684
2021-01-15 14:19:01+00:00,380.9595,3.7,12.57,47.84626,-54.09684
2021-01-15 14:29:01+00:00,376.0396,3.7,12.57,47.84626,-54.09684
2021-01-15 14:39:01+00:00,369.658,3.7,12.57,47.84626,-54.09684
2021-01-15 14:49:01+00:00,366.0897,3.6,12.57,47.84626,-54.09684
2021-01-15 14:59:01+00:00,362.1229,3.5,12.57,47.84626,-54.09684
2021-01-15 15:09:01+00:00,352.673,3.54,12.57,47.84626,-54.09684
2021-01-15 15:19:01+00:00,348.473,3.6,12.73,47.84626,-54.09684
2021-01-15 15:29:01+00:00,344.7162,3.5,12.73,47.84626,-54.09684
2021-01-15 15:39:01+00:00,335.0229,3.5,12.73,47.84626,-54.09684
2021-01-15 15:49:01+00:00,327.9446,3.5,12.73,47.84626,-54.09684
2021-01-15 15:59:01+00:00,318.9147,3.5,12.73,47.84626,-54.09684
2021-01-15 16:09:01+00:00,305.513,3.4,12.73,47.84626,-54.09684
2021-01-15 16:19:01+00:00,292.323,3.03,12.89,47.84626,-54.09684
2021-01-15 16:29:01+00:00,284.8264,2.5,12.89,47.84626,-54.09684
2021-01-15 16:39:01+00:00,275.0714,3.06,12.89,47.84626,-54.09684
2021-01-15 16:49:01+00:00,263.1497,2.8,12.89,47.84626,-54.09684
2021-01-15 16:59:01+00:00,255.3881,2.8,12.89,47.84626,-54.09684
2021-01-15 17:09:01+00:00,247.2864,2.8,12.89,47.84626,-54.09684
2021-01-15 17:19:01+00:00,235.4747,2.8,12.89,47.84626,-54.09684
2021-01-15 17:29:01+00:00,220.9231,2.9,12.89,47.84626,-54.09684
2021-01-15 17:39:01+00:00,213.3831,2.9,12.89,47.84626,-54.09684
2021-01-15 17:49:01+00:00,213.0781,2.95,12.89,47.84626,-54.09684
2021-01-15 17:59:01+00:00,205.9615,2.99,12.89,47.84626,-54.09684
2021-01-15 18:09:01+00:00,196.6565,2.99,12.89,47.84626,-54.09684
2021-01-15 18:19:01+00:00,195.5098,2.9,12.81,47.84626,-54.09684
2021-01-15 18:29:01+00:00,200.3381,2.9,12.81,47.84626,-54.09684
2021-01-15 18:39:01+00:00,196.2531,2.83,12.81,47.84626,-54.09684
2021-01-15 18:49:01+00:00,191.2798,2.8,12.81,47.84626,-54.09684
2021-01-15 18:59:01+00:00,187.4815,2.87,12.81,47.84626,-54.09684
2021-01-15 19:09:01+00:00,183.9148,2.92,12.81,47.84626,-54.09684
2021-01-15 19:19:01+00:00,188.5948,2.9,12.65,47.84626,-54.09684
2021-01-15 19:29:01+00:00,191.7464,2.88,12.65,47.84626,-54.09684
2021-01-15 19:39:01+00:00,184.4181,2.77,12.65,47.84626,-54.09684
2021-01-15 19:49:01+00:00,186.6914,3.04,12.65,47.84626,-54.09684
2021-01-15 19:59:01+00:00,197.3281,3.1,12.65,47.84626,-54.09684
2021-01-15 20:09:01+00:00,198.9564,3.18,12.65,47.84626,-54.09684
2021-01-15 20:19:01+00:00,194.6865,3.0,12.57,47.84626,-54.09684
2021-01-15 20:29:01+00:00,198.2014,2.84,12.57,47.84626,-54.09684
2021-01-15 20:39:01+00:00,208.4681,3.22,12.57,47.84626,-54.09684
2021-01-15 20:49:01+00:00,206.8031,3.28,12.57,47.84626,-54.09684
2021-01-15 20:59:01+00:00,208.3598,3.28,12.57,47.84626,-54.09684
2021-01-15 21:09:01+00:00,219.8297,3.3,12.57,47.84626,-54.09684
2021-01-15 21:19:01+00:00,225.5848,3.2,12.57,47.84626,-54.09684
2021-01-15 21:29:01+00:00,229.0231,3.24,12.57,47.84626,-54.09684
2021-01-15 21:39:01+00:00,235.1764,3.23,12.57,47.84626,-54.09684
2021-01-15 21:49:01+00:00,245.0097,3.09,12.57,47.84626,-54.09684
2021-01-15 21:59:01+00:00,246.5781,2.85,12.57,47.84626,-54.09684
2021-01-15 22:09:01+00:00,242.9947,2.9,12.57,47.84626,-54.09684
2021-01-15 22:19:01+00:00,246.0998,2.9,12.49,47.84626,-54.09684
2021-01-15 22:29:01+00:00,255.6931,3.09,12.49,47.84626,-54.09684
2021-01-15 22:39:01+00:00,261.4548,3.1,12.49,47.84626,-54.09684
2021-01-15 22:49:01+00:00,266.3664,2.99,12.49,47.84626,-54.09684
2021-01-15 22:59:01+00:00,270.6514,2.7,12.49,47.84626,-54.09684
2021-01-15 23:09:01+00:00,273.9381,2.7,12.49,47.84626,-54.09684
2021-01-15 23:19:01+00:00,280.5347,2.9,12.41,47.84626,-54.09684
2021-01-15 23:29:01+00:00,286.9664,3.4,12.41,47.84626,-54.09684
2021-01-15 23:39:01+00:00,293.353,3.4,12.41,47.84626,-54.09684
2021-01-15 23:49:01+00:00,294.9697,3.4,12.41,47.84626,-54.09684
2021-01-15 23:59:01+00:00,297.173,3.31,12.41,47.84626,-54.09684
